Location: Nairn
(57.5833°N, 3.8667°W)
Time: 02:31:56
(UTC+00:00)

Cosmos 2333 Rocket - Pass Details

Date: 07 August 2020
Orbit: 838 x 864 km, 70.8° (Epoch: 27 September)

Event Time Altitude Azimuth Distance (km) Brightness Sun altitude
Rises 02:21:57 0° 316° (NW) 3,457 5.6 -12.0°
Reaches altitude 10° 02:26:20 10° 284° (WNW) 2,512 4.5 -11.7°
Maximum altitude 02:28:05 11° 267° (W) 2,406 4.2 -11.6°
Drops below altitude 10° 02:29:51 10° 249° (WSW) 2,505 4.2 -11.4°
Enters shadow 02:30:14 - 245° (WSW) 2,552 4.2 -11.4°
